Weather History for North Wilkesboro, NC

Change the Weather History Date:

Thursday, May 9, 2013

  Actual Average Record
Temperature  
Mean Temperature 61 °F -  
Max Temperature 78 °F 73 °F 90 °F (1962)
Min Temperature 44 °F 45 °F 34 °F (1956)
Degree Days  
Heating Degree Days 4    
Growing Degree Days 11 (Base 50)    
Moisture  
Dew Point 51 °F    
Average Humidity 71    
Maximum Humidity 100    
Minimum Humidity 36    
Precipitation  
Precipitation 0.00 in - - ()
Sea Level Pressure  
Sea Level Pressure 30.11 in    
Wind  
Wind Speed 1 mph (West)    
Max Wind Speed 9 mph    
Max Gust Speed -    
Visibility 8 miles    
Events Fog    
Averages and records for this station are not official NWS values.
T = Trace of Precipitation, MM = Missing Value Source: NWS Daily Summary

Daily Weather History Graph

Daily Weather History Graph

Search for Another Location

Airport:

Trip Planner

Search our weather history database for the weather conditions in past years. The results will help you decide how hot, cold, wet, or windy it might be!

Date:

Astronomy

May. 09, 2013 Rise Set
Actual Time 6:23 AM EDT 8:19 PM EDT
Civil Twilight 5:54 AM EDT 8:47 PM EDT
Nautical Twilight 5:20 AM EDT 9:21 PM EDT
Astronomical Twilight 4:44 AM EDT 9:58 PM EDT
Moon 6:05 AM EDT (5/9) 8:12 PM EDT (5/9)
Length of Visible Light 14h 52m
Length of Day
13h 55m
Waning Crescent, 0% of the Moon is Illuminated
May 9
Waning Crescent
May 9
New
May 18
First Quarter
May 25
Full
May 31
Last Quarter

Hourly Weather History & Observations

Time (EDT) Temp. Dew Point Humidity Pressure Visibility Wind Dir Wind Speed Gust Speed Precip Events Conditions
1:15 AM 50.0 °F 50.0 °F 100% 30.08 in 7.0 mi Calm Calm - N/A   Clear
1:35 AM 50.0 °F 50.0 °F 100% 30.08 in 5.0 mi Calm Calm - N/A   Clear
1:55 AM 50.0 °F 50.0 °F 100% 30.08 in 0.5 mi Calm Calm - N/A Fog Fog
2:15 AM 48.2 °F 48.2 °F 100% 30.07 in 0.2 mi Calm Calm - N/A Fog Fog
2:35 AM 50.0 °F 50.0 °F 100% 30.07 in 0.2 mi Calm Calm - N/A Fog Fog
2:55 AM 50.0 °F 50.0 °F 100% 30.07 in 1.0 mi Calm Calm - N/A   Overcast
3:15 AM 50.0 °F 50.0 °F 100% 30.07 in 5.0 mi SW 3.5 mph - N/A   Scattered Clouds
3:35 AM 50.0 °F 50.0 °F 100% 30.07 in 1.0 mi Calm Calm - N/A   Overcast
4:35 AM 46.4 °F 46.4 °F 100% 30.07 in 2.5 mi Calm Calm - N/A   Clear
4:55 AM 46.4 °F 46.4 °F 100% 30.07 in 0.8 mi Calm Calm - N/A   Mostly Cloudy
5:35 AM 44.6 °F 44.6 °F 100% 30.08 in 0.5 mi Calm Calm - N/A Fog Fog
5:55 AM 44.6 °F 44.6 °F 100% 30.09 in 0.5 mi Calm Calm - N/A Fog Fog
6:15 AM 44.6 °F 44.6 °F 100% 30.10 in 0.2 mi Calm Calm - N/A Fog Fog
6:35 AM 44.6 °F 44.6 °F 100% 30.10 in 0.2 mi Calm Calm - N/A Fog Fog
6:55 AM 44.6 °F 44.6 °F 100% 30.12 in 0.2 mi Calm Calm - N/A Fog Fog
7:15 AM 46.4 °F 46.4 °F 100% 30.12 in 4.0 mi Calm Calm - N/A   Scattered Clouds
7:55 AM 50.0 °F 50.0 °F 100% 30.13 in 10.0 mi Calm Calm - N/A   Clear
8:15 AM 51.8 °F 51.8 °F 100% 30.14 in 10.0 mi Calm Calm - N/A   Clear
9:15 AM 57.2 °F 55.4 °F 94% 30.14 in 10.0 mi Calm Calm - N/A   Clear
9:35 AM 59.0 °F 55.4 °F 88% 30.15 in 10.0 mi Calm Calm - N/A   Clear
10:15 AM 60.8 °F 57.2 °F 88% 30.15 in 10.0 mi Calm Calm - N/A   Clear
10:35 AM 62.6 °F 59.0 °F 88% 30.15 in 10.0 mi SSW 3.5 mph - N/A   Clear
10:55 AM 64.4 °F 55.4 °F 73% 30.14 in 10.0 mi Calm Calm - N/A   Clear
11:35 AM 69.8 °F 57.2 °F 64% 30.14 in 10.0 mi SSE 3.5 mph - N/A   Clear
11:55 AM 69.8 °F 53.6 °F 56% 30.14 in 10.0 mi Calm Calm - N/A   Clear
12:15 PM 71.6 °F 55.4 °F 57% 30.14 in 10.0 mi South 3.5 mph - N/A   Clear
12:35 PM 71.6 °F 55.4 °F 57% 30.14 in 10.0 mi SSW 3.5 mph - N/A   Scattered Clouds
1:15 PM 73.4 °F 57.2 °F 57% 30.13 in 10.0 mi WSW 3.5 mph - N/A   Scattered Clouds
1:35 PM 73.4 °F 51.8 °F 47% 30.13 in 10.0 mi SW 5.8 mph - N/A   Scattered Clouds
1:55 PM 73.4 °F 50.0 °F 44% 30.13 in 10.0 mi NNW 6.9 mph - N/A   Scattered Clouds
2:15 PM 73.4 °F 51.8 °F 47% 30.12 in 10.0 mi WNW 3.5 mph - N/A   Mostly Cloudy
2:35 PM 75.2 °F 51.8 °F 44% 30.12 in 10.0 mi Calm Calm - N/A   Mostly Cloudy
2:55 PM 75.2 °F 51.8 °F 44% 30.12 in 10.0 mi West 5.8 mph - N/A   Mostly Cloudy
3:35 PM 77.0 °F 51.8 °F 41% 30.11 in 10.0 mi NW 9.2 mph - N/A   Scattered Clouds
3:55 PM 77.0 °F 51.8 °F 41% 30.10 in 10.0 mi WNW 3.5 mph - N/A   Clear
4:15 PM 78.8 °F 50.0 °F 36% 30.09 in 10.0 mi NW 3.5 mph - N/A   Clear
4:35 PM 77.0 °F 51.8 °F 41% 30.09 in 10.0 mi NW 6.9 mph - N/A   Mostly Cloudy
4:55 PM 78.8 °F 51.8 °F 39% 30.08 in 10.0 mi WNW 6.9 mph - N/A   Mostly Cloudy
5:15 PM 78.8 °F 51.8 °F 39% 30.08 in 10.0 mi Calm Calm - N/A   Scattered Clouds
5:35 PM 77.0 °F 48.2 °F 36% 30.08 in 10.0 mi Calm Calm - N/A   Clear
5:55 PM 77.0 °F 51.8 °F 41% 30.08 in 10.0 mi West 3.5 mph - N/A   Scattered Clouds
6:15 PM 77.0 °F 51.8 °F 41% 30.08 in 10.0 mi WNW 4.6 mph - N/A   Scattered Clouds
6:35 PM 73.4 °F 50.0 °F 44% 30.08 in 10.0 mi NW 3.5 mph - N/A   Scattered Clouds
6:55 PM 71.6 °F 50.0 °F 46% 30.08 in 10.0 mi NNW 3.5 mph - N/A   Scattered Clouds
7:15 PM 71.6 °F 50.0 °F 46% 30.08 in 10.0 mi NW 4.6 mph - N/A   Scattered Clouds
7:35 PM 69.8 °F 50.0 °F 49% 30.09 in 10.0 mi Calm Calm - N/A   Clear
7:55 PM 69.8 °F 50.0 °F 49% 30.10 in 10.0 mi Calm Calm - N/A   Mostly Cloudy
8:15 PM 68.0 °F 53.6 °F 60% 30.11 in 10.0 mi Calm Calm - N/A   Mostly Cloudy
8:35 PM 66.2 °F 55.4 °F 68% 30.11 in 10.0 mi Calm Calm - N/A   Scattered Clouds
8:55 PM 64.4 °F 53.6 °F 68% 30.11 in 10.0 mi Calm Calm - N/A   Scattered Clouds
9:15 PM 64.4 °F 51.8 °F 64% 30.12 in 10.0 mi Calm Calm - N/A   Mostly Cloudy
9:35 PM 64.4 °F 51.8 °F 64% 30.13 in 10.0 mi Calm Calm - N/A   Overcast
9:55 PM 64.4 °F 53.6 °F 68% 30.14 in 10.0 mi Calm Calm - N/A   Scattered Clouds
10:15 PM 60.8 °F 53.6 °F 77% 30.14 in 10.0 mi West 3.5 mph - N/A   Clear
10:35 PM 60.8 °F 53.6 °F 77% 30.14 in 10.0 mi West 4.6 mph - N/A   Clear
10:55 PM 60.8 °F 51.8 °F 72% 30.14 in 10.0 mi WNW 3.5 mph - N/A   Clear
11:15 PM 60.8 °F 51.8 °F 72% 30.14 in 10.0 mi Calm Calm - N/A   Clear
11:35 PM 59.0 °F 51.8 °F 77% 30.14 in 10.0 mi Calm Calm - N/A   Clear
11:55 PM 57.2 °F 51.8 °F 82% 30.14 in 10.0 mi Calm Calm - N/A   Clear